TimeMST,TemperatureF,Dew PointF,Humidity,Sea Level PressureIn,VisibilityMPH,Wind Direction,Wind SpeedMPH,Gust SpeedMPH,PrecipitationIn,Events,Conditions,WindDirDegrees,DateUTC
12:53 AM,16.0,15.1,96,30.35,8.0,West,6.9,-,N/A,,Clear,260,2012-11-15 07:53:00
1:53 AM,14.0,12.0,92,30.37,8.0,West,4.6,-,N/A,,Clear,270,2012-11-15 08:53:00
2:53 AM,10.9,10.0,96,30.39,9.0,WSW,3.5,-,N/A,,Clear,250,2012-11-15 09:53:00
3:45 AM,8.6,6.8,92,30.28,10.0,West,3.5,-,N/A,,Scattered Clouds,260,2012-11-15 10:45:00
3:53 AM,8.1,6.1,92,30.39,10.0,West,3.5,-,N/A,,Mostly Cloudy,260,2012-11-15 10:53:00
4:27 AM,8.6,5.0,85,30.29,1.2,West,3.5,-,N/A,,Overcast,260,2012-11-15 11:27:00
4:34 AM,8.6,6.8,92,30.28,0.2,Calm,Calm,-,N/A,Fog,Light Freezing Fog,0,2012-11-15 11:34:00
4:43 AM,8.6,3.2,79,30.29,3.0,Calm,Calm,-,N/A,,Overcast,0,2012-11-15 11:43:00
4:53 AM,9.0,6.1,88,30.41,10.0,WSW,3.5,-,N/A,,Mostly Cloudy,250,2012-11-15 11:53:00
5:53 AM,7.0,3.9,87,30.42,10.0,ENE,3.5,-,N/A,,Mostly Cloudy,60,2012-11-15 12:53:00
6:34 AM,5.0,3.2,92,30.31,1.8,ENE,4.6,-,N/A,,Overcast,60,2012-11-15 13:34:00
6:40 AM,6.8,3.2,85,30.31,0.8,ENE,4.6,-,N/A,,Mist,70,2012-11-15 13:40:00
6:46 AM,6.8,5.0,92,30.31,1.2,ENE,5.8,-,N/A,,Overcast,70,2012-11-15 13:46:00
6:53 AM,8.1,5.0,87,30.43,1.2,East,3.5,-,N/A,,Overcast,80,2012-11-15 13:53:00
7:03 AM,8.6,6.8,92,30.31,0.8,ENE,3.5,-,N/A,,Mist,70,2012-11-15 14:03:00
7:53 AM,9.0,6.1,88,30.43,0.2,Calm,Calm,-,N/A,Fog,Light Freezing Fog,0,2012-11-15 14:53:00
8:42 AM,12.2,8.6,85,30.31,1.2,Calm,Calm,-,N/A,,Overcast,0,2012-11-15 15:42:00
8:49 AM,12.2,8.6,85,30.31,3.0,Calm,Calm,-,N/A,,Overcast,0,2012-11-15 15:49:00
8:50 AM,12.2,8.6,85,30.31,3.0,Calm,Calm,-,N/A,,Overcast,0,2012-11-15 15:50:00
9:09 AM,14.0,10.4,86,30.31,8.0,East,3.5,-,N/A,,Scattered Clouds,80,2012-11-15 16:09:00
9:53 AM,18.0,14.0,84,30.42,10.0,ENE,5.8,-,N/A,,Clear,70,2012-11-15 16:53:00
10:53 AM,21.0,18.0,88,30.40,10.0,ENE,6.9,-,N/A,,Clear,60,2012-11-15 17:53:00
11:53 AM,26.1,21.0,81,30.37,10.0,ENE,5.8,-,N/A,,Clear,60,2012-11-15 18:53:00
12:53 PM,30.0,23.0,75,30.34,10.0,ENE,6.9,-,N/A,,Clear,60,2012-11-15 19:53:00
1:53 PM,32.0,25.0,75,30.32,10.0,NE,5.8,-,N/A,,Clear,50,2012-11-15 20:53:00
2:53 PM,32.0,26.1,79,30.31,10.0,ENE,8.1,-,N/A,,Clear,70,2012-11-15 21:53:00
3:53 PM,30.0,25.0,82,30.31,10.0,ENE,4.6,-,N/A,,Clear,60,2012-11-15 22:53:00
4:53 PM,24.1,21.0,88,30.30,10.0,NE,5.8,-,N/A,,Clear,40,2012-11-15 23:53:00
5:53 PM,21.9,19.0,89,30.30,10.0,NE,4.6,-,N/A,,Clear,50,2012-11-16 00:53:00
6:53 PM,21.9,19.9,92,30.29,10.0,NE,4.6,-,N/A,,Clear,40,2012-11-16 01:53:00
7:53 PM,21.0,19.0,92,30.27,9.0,NE,3.5,-,N/A,,Clear,50,2012-11-16 02:53:00
8:53 PM,19.0,16.0,88,30.26,10.0,ENE,4.6,-,N/A,,Clear,70,2012-11-16 03:53:00
9:10 PM,19.4,17.6,93,30.13,10.0,East,5.8,-,N/A,,Scattered Clouds,80,2012-11-16 04:10:00
9:18 PM,19.4,17.6,93,30.13,2.5,East,4.6,-,N/A,,Mostly Cloudy,80,2012-11-16 04:18:00
9:21 PM,19.4,17.6,93,30.12,0.8,East,4.6,-,N/A,,Mist,90,2012-11-16 04:21:00
9:42 PM,17.6,17.6,100,30.12,1.5,East,5.8,-,N/A,,Mostly Cloudy,90,2012-11-16 04:42:00
9:46 PM,17.6,15.8,93,30.11,3.0,East,5.8,-,N/A,,Mostly Cloudy,90,2012-11-16 04:46:00
9:53 PM,17.1,15.1,92,30.22,8.0,East,5.8,-,N/A,,Scattered Clouds,90,2012-11-16 04:53:00
10:53 PM,14.0,10.9,88,30.20,10.0,ENE,4.6,-,N/A,,Clear,70,2012-11-16 05:53:00
11:53 PM,17.1,15.1,92,30.17,10.0,ENE,4.6,-,N/A,,Clear,70,2012-11-16 06:53:00